Location: Karcze
(52.0945°N, 22.4786°E)
Time: 00:59:25
(UTC+00:00)

Daily predictions for brighter satellites

Satellite Brightness Start Highest point End
(mag) Time Altitude Azimuth Time Altitude Azimuth Time Altitude Azimuth
Abrixas rocket 2.3 00:03:46 33° SW 00:04:21 37° S 00:07:05 10° ESE
Cosmos 2242 Rocket 4.3 00:04:27 10° NNW 00:08:47 42° W 00:11:25 21° SSW
SL-8 R/B 4.4 00:08:40 21° SSW 00:11:11 35° SSE 00:15:34 10° E
Cosmos 2016 Rocket 4.2 00:09:03 15° S 00:14:14 70° E 00:20:27 10° NNE
IRAS Rocket 4.4 00:11:58 17° S 00:16:03 54° WSW 00:21:28 10° NNW
Lacrosse 5 2.0 00:10:58 10° WSW 00:16:04 75° NNW 00:21:11 10° ENE
SL-16 R/B 2.6 00:11:56 13° S 00:17:36 71° WSW 00:23:53 10° NNW
Okean 3 3.6 00:14:10 10° N 00:18:23 73° E 00:22:19 12° SSE
Cosmos 1602 4.3 00:17:36 21° SW 00:19:52 46° WNW 00:23:37 10° N
Meteor 1-4 Rocket 4.5 00:17:33 10° NW 00:20:05 18° W 00:21:27 15° WSW
Meteor 2-4 Rocket 3.8 00:15:04 10° NNW 00:21:02 77° W 00:26:29 12° S
Okean 1 4.3 00:18:29 10° NNW 00:22:02 31° W 00:24:06 19° SW
BREEZE-M DEB (TANK) 3.5 00:16:49 10° WSW 00:22:36 38° S 00:25:31 10° ESE
Cosmos 2278 4.1 00:18:03 10° NNW 00:23:47 68° NE 00:29:28 10° SE
SL-16 R/B 4.4 00:21:10 10° NNW 00:26:05 29° NE 00:30:59 10° E
Cosmos 1933 Rocket 4.4 00:23:25 17° SW 00:26:17 38° WNW 00:30:23 10° N
Meteor 1-14 Rocket 4.3 00:22:26 18° SSW 00:26:42 70° WNW 00:32:24 10° N
Meteor 1-11 Rocket 4.4 00:21:40 10° SSE 00:26:57 48° E 00:32:15 10° NNE
MOZ.5/SAFIR/RUBIN 5/SL-8 4.4 00:25:52 18° SSW 00:29:05 42° W 00:33:38 10° NNW
Helios 1B rocket 4.2 00:26:40 10° N 00:29:55 23° WNW 00:33:01 11° WSW
Cosmos 1190 Rocket 4.2 00:26:21 16° S 00:30:27 68° ESE 00:35:42 10° NNE
Cosmos 1869 Rocket 3.5 00:27:34 18° SSW 00:30:43 79° W 00:35:06 10° N
Cosmos 1536 4.0 00:27:12 10° SSE 00:30:59 39° E 00:34:46 10° NNE
Cosmos 1697 Rocket 2.6 00:26:51 10° NNW 00:32:30 75° WSW 00:38:05 10° SSE
Cosmos 921 Rocket 3.3 00:29:41 10° NNW 00:34:08 72° ENE 00:38:28 10° SSE
Cosmos 1437 Rocket 3.1 00:31:12 10° NNW 00:35:07 49° W 00:38:00 17° SSW
Cosmos 2221 Rocket 3.5 00:33:08 10° NNW 00:37:35 85° W 00:42:00 10° S
SeaSat 1 2.7 00:35:56 10° NE 00:40:51 61° ESE 00:45:02 14° SSW
NOSS 7 (D) 4.5 00:41:19 10° WNW 00:43:56 36° SW 00:46:45 10° SSE
IRS-1D 3.8 00:39:17 10° NNE 00:44:12 60° ESE 00:49:01 10° S
CZ-2D R/B 2.2 00:39:07 10° NNE 00:44:27 75° WNW 00:49:08 14° SSW
CZ-4B R/B 3.6 00:39:35 10° NNE 00:44:42 74° ESE 00:49:15 12° S
Cosmos 2082 Rocket 3.0 00:40:40 11° S 00:45:54 44° ESE 00:51:19 10° NE
Aureole 1 Rocket 3.8 00:43:26 14° SSW 00:47:30 71° ESE 00:53:49 10° NNE
Cosmos 614 Rocket 4.2 00:43:22 15° SW 00:47:34 61° WNW 00:52:41 10° NNE
Cosmos 1763 Rocket 4.3 00:42:36 10° NNW 00:47:47 54° ENE 00:52:58 10° SE
Cosmos 1833 Rocket 2.8 00:44:54 14° SSW 00:49:44 71° ESE 00:55:21 10° NE
COBE Rocket 4.0 00:45:54 10° SSE 00:50:55 85° ENE 00:55:49 10° NNW
Cosmos 1656 4.4 00:47:13 10° NW 00:52:01 32° WSW 00:56:31 11° SSW
COSMOS 2406 3.3 00:49:39 14° SW 00:54:42 80° WNW 01:00:31 10° NNE
Cosmos 405 Rocket 3.9 00:52:44 14° SW 00:55:31 30° WNW 00:58:52 10° N
Cosmos 1140 Rocket 3.5 00:52:12 14° SSW 00:56:45 83° WNW 01:02:02 10° NNE
CBERS-1 4.2 00:52:19 10° NNE 00:57:31 76° ESE 01:02:37 10° S
Cosmos 2360 4.3 00:53:16 10° NW 00:58:57 64° WSW 01:04:36 10° SSE
Cosmos 468 Rocket 4.3 00:53:37 10° NNW 00:58:57 73° ENE 01:04:16 10° SSE
EP 1 4.2 00:56:57 16° SW 00:59:02 79° NW 01:01:37 10° NE
Cosmos 407 Rocket 3.8 00:55:13 13° SW 00:59:56 65° WNW 01:05:17 10° NNE
Cosmos 1500 3.8 00:58:26 14° SW 01:01:23 42° WNW 01:05:01 10° N
Cosmos 2233 Rocket 4.1 00:55:22 10° S 01:01:34 82° E 01:07:53 10° NNE
ERS-2 4.3 00:58:26 10° SE 01:01:36 29° ENE 01:04:47 10° N
Meteor 1-28 Rocket 3.8 00:58:45 10° SSE 01:02:24 59° ENE 01:06:07 10° N
Cosmos 2322 Rocket 3.8 01:02:24 10° NNW 01:07:44 40° NE 01:13:04 10° ESE
Cosmos 192 4.4 01:03:42 10° NNW 01:08:32 57° WSW 01:13:19 10° S
Cosmos 1674 Rocket 3.5 01:04:48 10° NNW 01:09:11 87° W 01:13:31 10° S
Cosmos 1271 Rocket 4.4 01:06:04 10° N 01:09:34 34° ENE 01:13:02 10° SE
Cosmos 1066 Rocket 4.3 01:05:38 10° NNW 01:11:31 81° W 01:17:22 10° S
Cosmos 841 Rocket 4.5 01:10:17 10° NNW 01:15:19 51° ENE 01:20:22 10° SE
ARIANE 5 R/B 3.1 01:11:35 10° NNE 01:16:35 56° E 01:21:38 10° S
IRS-1C 4.4 01:11:16 10° NNE 01:16:38 72° ESE 01:21:57 10° S
Cosmos 1666 2.8 01:13:11 11° SSW 01:16:45 61° WNW 01:20:29 10° N
Cosmos 676 Rocket 4.1 01:16:39 10° SSW 01:21:55 79° WNW 01:27:16 10° NNE
ADEOS II 2.1 01:17:28 10° NNE 01:22:46 82° WNW 01:28:01 10° SSW
NPP 4.3 01:18:21 10° N 01:23:28 45° WNW 01:28:34 10° SW
Cosmos 1818 3.6 01:18:11 10° NW 01:23:40 76° SW 01:29:05 10° SSE
Resurs 1-4 Rocket 3.0 01:22:13 10° N 01:27:04 36° WNW 01:31:53 10° SW
Cosmos 1725 Rocket 4.5 01:21:14 10° SSW 01:27:13 48° WNW 01:33:17 10° N
SL-08 R/B 3.4 01:24:48 10° S 01:29:31 62° WSW 01:34:22 10° NNW
Cosmos 1743 3.0 01:28:44 10° S 01:32:31 67° E 01:36:21 10° NNE
ISS -3.2 01:30:21 10° W 01:33:28 36° SSW 01:36:35 10° SE
Cosmos 1733 Rocket 3.3 01:29:56 10° SSW 01:34:10 54° WNW 01:38:26 10° N
Cosmos 1908 Rocket 4.0 01:30:30 10° S 01:34:55 66° E 01:39:23 10° NNE
Landsat 5 3.9 01:34:38 10° SSE 01:38:29 61° ENE 01:42:16 10° N
Abrixas rocket 3.4 01:37:14 10° WSW 01:39:20 18° SSW 01:41:26 10° SSE
USA 215 3.9 01:33:30 10° E 01:39:57 61° N 01:46:24 10° WNW
Cosmos 2360 Rocket 3.9 01:34:37 10° NNW 01:39:59 40° NE 01:45:18 10° ESE
ATLAS 5 CENTAUR R/B 2.6 01:37:25 10° NW 01:42:48 48° SW 01:49:01 10° SSE
Gbstr 26 Del rocket 4.0 01:42:11 10° W 01:45:52 28° SSW 01:50:10 10° SSE
